Current Version              Previous Version:    01  02  03  04  05  06  07  08  09  10  11  12  13  14  15  16  17  18  19  20  21  22  23  24  25  26  27  28  29  30  
   31  32  33  34  35  36  37  38  39  40  41  42  43  44  45  46  47  48  49  50  51  52  53  54  55  56  57  58  59  60  

[Printable]
604
ASUS44 KLUB 210410
RWRTX
WEST TEXAS WEATHER ROUNDUP
NATIONAL WEATHER SERVICE LUBBOCK TX
1000 PM CST SAT DEC 20 2014

NOTE: "FAIR" INDICATES FEW OR NO CLOUDS BELOW 12,000 FEET WITH NO
SIGNIFICANT WEATHER AND/OR OBSTRUCTIONS TO VISIBILITY.

TXZ004-006>008-010-012-014-016-OKZ002-210500-
TEXAS PANHANDLE/OKLAHOMA PANHANDLE

CITY           SKY/WX    TMP DP  RH WIND       PRES   REMARKS
AMARILLO       CLEAR     36  34  92 S10       30.00F WCI  28
BORGER         CLEAR     40  34  79 S10       30.00F WCI  33
CANADIAN       CLOUDY    41  39  94 S10G17    30.04S
DALHART        MOCLDY    28  22  78 SW7       29.98S WCI  21
DUMAS          PTCLDY    26  22  84 S9        29.97F WCI  17
GUYMON         CLEAR     32  26  78 S3        29.97F
HEREFORD       CLEAR     36  34  92 S9        30.00S WCI  29
PAMPA          CLEAR     35  33  93 S12       30.01F WCI  27
PERRYTON       PTCLDY    36  33  92 SE10      30.00F WCI  28
$$

TXZ026-029-035-045-048-210500-
SOUTHERN PANHANDLE/SOUTH PLAINS/ROLLING PLAINS

CITY           SKY/WX    TMP DP  RH WIND       PRES   REMARKS
CHILDRESS      CLOUDY    45  40  82 SE6       30.09R
SEMINOLE       CLEAR     38  27  64 S3        30.06R
LUBBOCK        FAIR      39  38  96 S9        30.03F FOG     WCI  33
PLAINVIEW      CLOUDY    40  39  97 S10       30.01F FOG     WCI  33
SNYDER         MOCLDY    45  41  87 SE8       30.08F
$$

TXZ052-054-060>062-072-078-127-140-154-169-210500-
PERMIAN BASIN/CONCHO VALLEY/BIG COUNTRY/EDWARDS PLATEAU

CITY           SKY/WX    TMP DP  RH WIND       PRES   REMARKS
ABILENE        CLOUDY    47  40  76 SE16      30.12R
BIG SPRING     CLEAR     44  40  88 SE8       30.09S
BRADY          CLEAR     39  39 100 E5        30.12R
BROWNWOOD      MOCLDY    41  39  93 MISG      30.15S
JUNCTION       CLOUDY    47  41  80 E3        30.13R
MIDLAND        CLEAR     46  42  86 S12       30.06R
ODESSA         PTCLDY    45  41  86 S12       30.07R
SAN ANGELO     CLOUDY    48  43  82 SE5       30.11R
SONORA         CLOUDY    48  46  93 S9        30.16S
SWEETWATER     CLEAR     46  41  83 SE12      30.11F
WINK           CLEAR     44  37  76 SE5       30.05R
$$

TXZ055-058-074-075-080-082-210500-
FAR WEST/SOUTHWEST MOUNTAINS/TRANS PECOS

CITY           SKY/WX    TMP DP  RH WIND       PRES   REMARKS
ALPINE         PTCLDY    44  28  54 SW6       30.14R
DRYDEN           N/A     51  47  86 E5        30.08F
EL PASO        CLEAR     45  28  51 CALM      30.12R
FORT STOCKTON  PTCLDY    45  42  89 SE10      30.06S
MARFA          MOCLDY    34  21  60 SW5       30.11S WCI  30
PECOS          PTCLDY    43  28  55 CALM      30.06R
PRESIDIO       FAIR      50  32  49 N12       30.05F
$$

TXZ014-016-019-021>030-083-210500
TEXAS TECH WEST TEXAS MESONET/TEXAS PANHANDLE/NORTHERN SOUTH PLAINS

CITY           SKY/WX    TMP DP  RH WIND       PRES   REMARKS
ABERNATHY 5ENE   N/A     38  37  99 S9        30.04F WCI  31
AMARILLO 9NNE    N/A     37  34  90 S9        29.99S WCI  30
AMARILLO 7SSE    N/A     34  33  94 S7        30.01S WCI  28
AMHERST 1NE      N/A     33  31  93 S7        30.02F WCI  27
BOOTLEG 11WNW    N/A     28  17  64 SW10      29.99F WCI  19
CANADIAN 6E      N/A     39  38  94 SE15      30.03S WCI  31
CAPROCK CYN SP   N/A     37  35  94 S9        30.05F WCI  30
CHILDRESS 2NNE   N/A     42  39  91 SE8       30.08R
CLARENDON 2WSW   N/A     38  35  89 S7        30.04S WCI  32
CLAUDE 12SW      N/A     39  35  86 S8        30.01F WCI  33
DIMMITT 2NE      N/A     32  30  94 S9        30.01S WCI  24
FLOYDADA 2NNE    N/A     38  38  99 S8        30.03F WCI  32
FRIONA 2NE       N/A     31  28  90 S9        30.00S WCI  23
GOODLETT 3W      N/A     41  39  92 SE7       30.09R
HART 3N          N/A     33  32  94 S8        30.01F WCI  27
HEREFORD 2NW     N/A     33  30  92 S9        29.99S WCI  25
MCLEAN 1E        N/A     39  37  94 SE8       30.02F WCI  33
MEMPHIS 1NE      N/A     42  38  85 SE5       30.06S
MULESHOE 2SSW    N/A     35  31  86 S8        30.01S WCI  28
OLTON 6S         N/A     33  31  92 S10       30.01F WCI  25
PALO DURO SP     N/A     38  35  86 S7        30.02F WCI  33
PAMPA 2E         N/A     33  32  99 SE10      30.01F WCI  24
PLAINVIEW 1S     N/A     38  38  99 S10       30.02F WCI  31
SILVERTON 7ESE   N/A     38  37  96 S8        30.04S WCI  32
TULIA 2ENE       N/A     36  36  99 S12       30.02S WCI  28
TURKEY 2WSW      N/A     39  38  93 S7        30.05S WCI  34
UMBARGER 3NNE    N/A     35  33  90 S14       30.00S WCI  26
$$

TXZ033>036-039>041-045>048-210500
TEXAS TECH WEST TEXAS MESONET/SOUTH PLAINS

CITY           SKY/WX    TMP DP  RH WIND       PRES   REMARKS
AIKEN 3WSW       N/A     35  35 100 S8        30.04F WCI  28
ANTON 6SSW       N/A     37  36  95 S9        30.03F WCI  30
BROWNFIELD 2S    N/A     35  34  96 SE7       30.05S WCI  29
DENVR CTY 7WNW   N/A     36  25  65 SW7       30.04S WCI  30
GAIL 2ESE        N/A     43  39  88 SE1       30.07S
LAMESA 2SE       N/A     40  39  95 SE7       30.07R
LEVELLAND 4S     N/A     38  36  91 S9        30.03F WCI  32
LUBBOCK 3WNW     N/A     41  39  92 S9        30.04F
MORTON 1ENE      N/A     36  31  84 S8        30.02F WCI  29
ODONNELL 1N      N/A     42  39  92 SE8       30.06S
PLAINS 3N        N/A     35  27  72 S6        30.04S WCI  30
RALLS 1SE        N/A     37  37  98 SE6       30.06R WCI  33
REESE CENTER     N/A     37  36  95 S9        30.04S WCI  31
SEAGRAVES 1SW    N/A     31  28  90 CALM      30.05R
SEMINOLE 2NNE    N/A     35  26  68 S7        30.05R WCI  29
SLATON 2NE       N/A     37  36  96 SE7       30.05S WCI  32
SNYDER 3E        N/A     45  42  88 SE9       30.07S
SUNDOWN 8SW      N/A     34  32  94 S8        30.04S WCI  27
TAHOKA 3NNE      N/A     37  35  95 S7        30.05S WCI  31
WOLFFORTH 6SSW   N/A     39  39  99 S10       30.05S WCI  32
$$

TXZ031-032-036>038-042>044-210500-
TEXAS TECH WEST TEXAS MESONET/ROLLING PLAINS

CITY           SKY/WX    TMP DP  RH WIND       PRES   REMARKS
ASPERMONT 3NE    N/A     41  38  89 SE7       30.09S
FLUVANNA 3WNW    N/A     46  41  84 SE10      30.06F
GRAHAM 5SSW      N/A     43  40  89 SE9       30.06S
GUTHRIE 10WSW    N/A     41  38  89 SE7       30.07S
HASKELL 1NW      N/A     39  38  97 SE3       30.10S
JAYTON 1SSE      N/A     42  38  86 SE6       30.08S
KNOX CITY 3NW    N/A     41  37  86 SE9       30.10S
LK A HENRY 1NW   N/A     43  40  90 S5        30.07R
NORTHFIELD 1S    N/A     43  40  88 SE8       30.07R
ODELL 4ENE       N/A     41  40  97 SE10      30.12R
PADUCAH 10SW     N/A     41  38  89 S6        30.07S
POST 1NE         N/A     40  38  95 S2        30.06S
SEYMOUR 3NW      N/A     40  39  94 E8        30.11F WCI  35
SPUR 1W          N/A     40  38  91 SE2       30.06S
WHITE RVR 6NE    N/A     42  39  90 SE6       30.06S
$$

TXZ052-054-060>062-072-078-127-140-154-169-210500-
TEXAS TECH WEST TEXAS MESONET/PERMIAN BASIN/
CONCHO VALLEY/BIG COUNTRY/EDWARDS PLATEAU

CITY           SKY/WX    TMP DP  RH WIND       PRES   REMARKS
COYANOSA 2N      N/A     45  41  85 N2        30.07R
JUNCTION 1SSW    N/A     48  42  80 SE7       30.14R
MERTZON 3NNE     N/A     46  43  87 CALM      30.12R
SAN ANGELO 7NW   N/A     49  42  75 SE5       30.12R
STRLNG CT 4WSW   N/A     48  44  84 E5        30.10S
ST LAWRNCE 5SW   N/A     47  44  88 S13       30.08S
SWEETWATR 11SW   N/A     45  40  85 SE10      30.09F
WALL 1E          N/A     47  40  78 SE7       30.12R
$$

TXZ055-058-074-075-080-082-210500-
TEXAS TECH WEST TEXAS MESONET/FAR WEST/SOUTHWEST MOUNTAINS/TRANS PECOS

CITY           SKY/WX    TMP DP  RH WIND       PRES   REMARKS
PRSMN GAP BBNP   N/A     47  44  90 N17       30.08R
$$